(220117) = 2000 EG169 = 2002 TQ46

Discovered at Socorro on 2002-10-02 by LINEAR.

Orbit

Orbit type: Phocaea

Note: WebGL enabled browser required.

epoch2023-09-13.0
epoch JD2460200.5
perihelion date2021-01-31.36447
perihelion JD2459245.86447
argument of perihelion (°)66.87520
ascending node (°)34.50672
inclination (°)12.32508
eccentricity0.1683057
perihelion distance (AU)1.9376248
Tisserand w.r.t. Jupiter3.5
ΔV w.r.t. Earth (km/sec)9.4
semimajor axis (AU)2.3297319
mean anomaly (°)264.59553
mean daily motion (°/day)0.27716920
aphelion distance (AU)2.722
period (years)3.56
P-vector [x]-0.18534040
P-vector [y]0.80532654
P-vector [z]0.56311464
Q-vector [x]-0.97520571
Q-vector [y]-0.22125348
Q-vector [z]-0.00455276
absolute magnitude16.84
phase slope0.15
uncertainty0
referenceMPEC 2024-B03
observations used424
oppositions12
arc length (days)8717
first opposition used2000
last opposition used2024
residual rms (arc-secs)0.78
perturbers coarse indicatorM-v
perturbers precise indicator003Ek
first observation date used2000-03-04.0
last observation date used2024-01-15.0
computer nameMPCLINUX
JD of orbit computation2456877.921195
perihelion JD uncertainty (days)8.2457E-05
argument of perihelion uncertainty (°)3.7924E-05
ascending node uncertainty (°)2.3797E-05
inclination uncertainty (°)5.8188E-06
eccentricity uncertainty 4.6932E-08
perihelion distance uncertainty (AU)1.0716E-07
Minimum Orbit Intersection Distances (in AU)
for orbit epoch: 2460200.5, reference: E2024-B03
Mercury1.62517
Venus1.23531
Earth0.9888
Mars0.45537
Jupiter2.53141
Saturn7.10508
Uranus16.2347
Neptune27.5142

Observations

430 total observations over interval: 2000 03 04.32148 – 2024 01 15.089394
These data are available for download (format description).

Date (UT) J2000 RA J2000 Dec Magn Location Ref
2000 03 04.32148 11 14 56.89 +25 06 59.9 18.8   704 – Lincoln Laboratory ETS, New Mexico MPS 12533
2000 03 04.33503 11 14 55.96 +25 07 00.4 19.3   704 – Lincoln Laboratory ETS, New Mexico MPS 12533
2000 03 04.34874 11 14 54.96 +25 07 00.6 19.5   704 – Lincoln Laboratory ETS, New Mexico MPS 12533
2000 03 04.36244 11 14 53.90 +25 07 02.1 19.9   704 – Lincoln Laboratory ETS, New Mexico MPS 12533
2000 03 04.37633 11 14 52.80 +25 07 02.1 19.2   704 – Lincoln Laboratory ETS, New Mexico MPS 12533
2000 03 12.33678 11 05 28.65 +25 01 57.1 19.5   704 – Lincoln Laboratory ETS, New Mexico MPS 12533
2000 03 12.34951 11 05 27.80 +25 01 57.2 19.6   704 – Lincoln Laboratory ETS, New Mexico MPS 12533
2000 03 12.37497 11 05 25.84 +25 01 51.7 19.9   704 – Lincoln Laboratory ETS, New Mexico MPS 12533
2000 03 12.38769 11 05 25.01 +25 01 51.9 20.2   704 – Lincoln Laboratory ETS, New Mexico MPS 12533
2002 10 02.41098 02 52 27.08 +14 17 37.3 20.3   704 – Lincoln Laboratory ETS, New Mexico MPS 63915
2002 10 02.42659 02 52 26.55 +14 17 41.7 20.3   704 – Lincoln Laboratory ETS, New Mexico MPS 63915
2002 10 02.44225 02 52 26.01 +14 17 45.7 20.4   704 – Lincoln Laboratory ETS, New Mexico MPS 63915
2002 10 02.45782 02 52 25.46 +14 17 48.8 19.7   704 – Lincoln Laboratory ETS, New Mexico MPS 63915
2002 10 03.34528 02 51 56.15 +14 21 28.0 20.1   704 – Lincoln Laboratory ETS, New Mexico MPS 63915
2002 10 03.36138 02 51 55.55 +14 21 31.5 19.9   704 – Lincoln Laboratory ETS, New Mexico MPS 63915
2002 10 03.37730 02 51 54.99 +14 21 35.5 20.0   704 – Lincoln Laboratory ETS, New Mexico MPS 63915
2002 10 03.39314 02 51 54.31 +14 21 39.9 20.6   704 – Lincoln Laboratory ETS, New Mexico MPS 63915
2002 10 07.34810 02 49 21.85 +14 37 19.2 20.1   704 – Lincoln Laboratory ETS, New Mexico MPS 63915
2002 10 07.36362 02 49 21.12 +14 37 23.7 19.8   704 – Lincoln Laboratory ETS, New Mexico MPS 63915
2002 10 07.37913 02 49 20.47 +14 37 26.1 20.1   704 – Lincoln Laboratory ETS, New Mexico MPS 63915
2002 10 07.39471 02 49 19.72 +14 37 30.7 19.7   704 – Lincoln Laboratory ETS, New Mexico MPS 63915
2002 10 11.33905 02 46 15.06 +14 52 14.6 20.1   704 – Lincoln Laboratory ETS, New Mexico MPS 63915
2002 10 11.35502 02 46 14.15 +14 52 16.7 20.5   704 – Lincoln Laboratory ETS, New Mexico MPS 63915
2002 10 11.37094 02 46 13.32 +14 52 22.5 20.2   704 – Lincoln Laboratory ETS, New Mexico MPS 63915
2002 10 11.38669 02 46 12.41 +14 52 27.0 20.3   704 – Lincoln Laboratory ETS, New Mexico MPS 63915
2002 10 26.56275 02 30 14.41 +15 40 46.3 19.6   608 – Haleakala-AMOS MPS 66040
2002 10 26.57390 02 30 13.57 +15 40 48.3 19.8   608 – Haleakala-AMOS MPS 66040
2002 10 26.58439 02 30 12.79 +15 40 49.2 20.2   608 – Haleakala-AMOS MPS 66040
2002 11 03.27284 02 20 38.38 +16 00 20.9 19.3   704 – Lincoln Laboratory ETS, New Mexico MPS 66040
2002 11 03.30679 02 20 35.69 +16 00 25.7 19.4   704 – Lincoln Laboratory ETS, New Mexico MPS 66040
2002 11 03.32377 02 20 34.31 +16 00 28.7 18.9   704 – Lincoln Laboratory ETS, New Mexico MPS 66040
2002 11 06.47298 02 16 36.24 +16 07 44.9 20.1   608 – Haleakala-AMOS MPS 68017
2002 11 06.48400 02 16 35.36 +16 07 46.3 19.8   608 – Haleakala-AMOS MPS 68017
2002 11 06.49436 02 16 34.60 +16 07 48.1 19.8   608 – Haleakala-AMOS MPS 68017
2002 11 11.14207 02 10 52.13 +16 18 01.2 19.0   704 – Lincoln Laboratory ETS, New Mexico MPS 66040
2002 11 11.15897 02 10 50.84 +16 18 04.0 19.5   704 – Lincoln Laboratory ETS, New Mexico MPS 66040
2002 11 11.17607 02 10 49.61 +16 18 06.2 19.1   704 – Lincoln Laboratory ETS, New Mexico MPS 66040
2002 11 11.19290 02 10 48.45 +16 18 08.5 19.5   704 – Lincoln Laboratory ETS, New Mexico MPS 66040
2002 11 11.20930 02 10 47.21 +16 18 10.9 19.1   704 – Lincoln Laboratory ETS, New Mexico MPS 66040
2002 11 12.24121 02 09 33.27 +16 20 25.7 19.0   704 – Lincoln Laboratory ETS, New Mexico MPS 66040
2002 11 12.25844 02 09 31.95 +16 20 27.7 19.3   704 – Lincoln Laboratory ETS, New Mexico MPS 66040
2002 11 12.27567 02 09 30.74 +16 20 30.2 20.0   704 – Lincoln Laboratory ETS, New Mexico MPS 66040
2002 11 12.28366 02 09 30.23 +16 20 31.8 20.8   644 – Palomar Mountain/NEAT MPS 66040
2002 11 12.29304 02 09 29.42 +16 20 33.1 19.3   704 – Lincoln Laboratory ETS, New Mexico MPS 66040
2002 11 12.30465 02 09 28.68 +16 20 34.9 20.9   644 – Palomar Mountain/NEAT MPS 66040
2002 11 12.31038 02 09 28.12 +16 20 34.0 19.3   704 – Lincoln Laboratory ETS, New Mexico MPS 66040
2002 11 12.32553 02 09 27.13 +16 20 37.4 19.6   644 – Palomar Mountain/NEAT MPS 66040
2002 12 02.16190 01 51 09.80 +17 08 52.9 19.1   704 – Lincoln Laboratory ETS, New Mexico MPS 68017
2002 12 02.19119 01 51 08.65 +17 08 58.8 19.9   704 – Lincoln Laboratory ETS, New Mexico MPS 68017
2002 12 02.22104 01 51 07.60 +17 09 04.0 19.9   704 – Lincoln Laboratory ETS, New Mexico MPS 68017
2002 12 06.21327 01 49 04.83 +17 21 36.3 19.5   704 – Lincoln Laboratory ETS, New Mexico MPS 68017
2002 12 06.22874 01 49 04.41 +17 21 39.2 19.7   704 – Lincoln Laboratory ETS, New Mexico MPS 68017
2002 12 06.24402 01 49 03.92 +17 21 42.4 20.0   704 – Lincoln Laboratory ETS, New Mexico MPS 68017
2002 12 06.25953 01 49 03.52 +17 21 45.4 19.3   704 – Lincoln Laboratory ETS, New Mexico MPS 68017
2002 12 06.27486 01 49 03.09 +17 21 47.7 19.4   704 – Lincoln Laboratory ETS, New Mexico MPS 68017
2002 12 11.15204 01 47 25.95 +17 39 10.8 19.5   704 – Lincoln Laboratory ETS, New Mexico MPS 68017
2002 12 11.16731 01 47 25.67 +17 39 14.2 19.6   704 – Lincoln Laboratory ETS, New Mexico MPS 68017
2002 12 11.18253 01 47 25.43 +17 39 18.9 19.5   704 – Lincoln Laboratory ETS, New Mexico MPS 68017
2003 01 05.14459 01 53 31.72 +19 47 10.3 19.7   704 – Lincoln Laboratory ETS, New Mexico MPS 69946
2003 01 05.17509 01 53 32.88 +19 47 22.1 20.3   704 – Lincoln Laboratory ETS, New Mexico MPS 69946
2003 01 05.20588 01 53 34.09 +19 47 34.2 19.8   704 – Lincoln Laboratory ETS, New Mexico MPS 69946
2004 04 22.33587 14 55 45.98 -19 11 15.8 20.6 V 691 – Steward Observatory, Kitt Peak-Spacewatch MPS 105077
2004 04 22.36302 14 55 44.04 -19 11 17.6 21.5 V 691 – Steward Observatory, Kitt Peak-Spacewatch MPS 105077
2004 04 22.39541 14 55 41.84 -19 11 18.8 20.5 V 691 – Steward Observatory, Kitt Peak-Spacewatch MPS 105077
2006 11 16.39959 09 31 24.99 +30 11 49.0 19.9 V G96 – Mt. Lemmon Survey MPS 186895
2006 11 16.40716 09 31 25.68 +30 11 49.7 20.0 V G96 – Mt. Lemmon Survey MPS 186895
2006 11 16.41468 09 31 26.43 +30 11 50.0 20.1 V G96 – Mt. Lemmon Survey MPS 186895
2006 11 16.42215 09 31 27.12 +30 11 50.8 20.1 V G96 – Mt. Lemmon Survey MPS 186895
2006 12 27.29924 10 13 58.62 +33 05 50.6 19.6 V 703 – Catalina Sky Survey MPS 192020
2006 12 27.31067 10 13 58.87 +33 05 55.3 19.2 V 703 – Catalina Sky Survey MPS 192020
2006 12 27.32132 10 13 59.01 +33 05 59.7 19.0 V 703 – Catalina Sky Survey MPS 192020
2006 12 27.33194 10 13 59.19 +33 06 05.4 19.5 V 703 – Catalina Sky Survey MPS 192020
2007 01 24.32854 10 04 51.82 +36 53 12.5 18.9   704 – Lincoln Laboratory ETS, New Mexico MPS 197005
2007 01 24.34102 10 04 51.18 +36 53 17.3 18.8   704 – Lincoln Laboratory ETS, New Mexico MPS 197005
2007 01 24.35382 10 04 50.41 +36 53 22.9 19.0   704 – Lincoln Laboratory ETS, New Mexico MPS 197005
2007 01 24.36621 10 04 49.64 +36 53 27.7 19.1   704 – Lincoln Laboratory ETS, New Mexico MPS 197005
2007 01 24.37868 10 04 48.86 +36 53 32.7 19.4   704 – Lincoln Laboratory ETS, New Mexico MPS 197005
2007 02 21.18951 09 32 27.99 +38 01 33.9 18.8 V 703 – Catalina Sky Survey MPS 200323
2007 02 21.19597 09 32 27.49 +38 01 33.4 19.4 V 703 – Catalina Sky Survey MPS 200323
2007 02 21.20243 09 32 27.09 +38 01 32.7 19.1 V 703 – Catalina Sky Survey MPS 200323
2007 02 21.20888 09 32 26.62 +38 01 30.6 19.1 V 703 – Catalina Sky Survey MPS 200323
2007 03 10.19012 09 18 02.73 +36 20 25.1 20.1 V 703 – Catalina Sky Survey MPS 202974
2007 03 10.19833 09 18 02.44 +36 20 20.2 19.1 V 703 – Catalina Sky Survey MPS 202974
2007 03 10.20662 09 18 02.16 +36 20 17.4 19.2 V 703 – Catalina Sky Survey MPS 202974
2007 03 10.21495 09 18 01.76 +36 20 13.8 19.6 V 703 – Catalina Sky Survey MPS 202974
2007 03 17.27319 09 15 17.10 +35 14 39.6 18.9 V 703 – Catalina Sky Survey MPS 204538
